Regional Weather Roundup
Issued by NWS

Home | Current Version | Previous Version | Text Only | Print | Product List | Glossary Off
Versions: 1 2 3 4 5 6 7 8 9 10 11 12 13 14 15 16 17 18 19 20 21 22 23 24 25 26 27 28 29 30 31 32 33 34 35 36 37 38 39 40 41 42 43 44 45 46 47 48 49 50

000
ASUS43 KDTX 060410
RWRMI
MICHIGAN HOURLY REGIONAL WEATHER ROUNDUP
NATIONAL WEATHER SERVICE DETROIT/PONTIAC MI
1200 AM EDT FRI MAY 06 2016

NOTE: "FAIR" INDICATES FEW OR NO CLOUDS BELOW 12,000 FEET WITH NO
SIGNIFICANT WEATHER AND/OR OBSTRUCTION TO VISIBILITY.

MIZ047>049-052>055-059>063-066>070-074>076-081>083-060500-
SOUTHEAST LOWER MICHIGAN

CITY           SKY/WX    TMP DP  RH WIND       PRES   REMARKS
ADRIAN         PTCLDY    50  40  68 N5        29.92S
ALMA           CLEAR     47  44  90 CALM      29.94S
BAD AXE        CLEAR     42  38  88 NW3       29.93R
CARO           PTCLDY    46  41  84 NW3       29.92S
DETROIT CITY   PTCLDY    54  33  45 N6        29.90S
DETROIT        PTCLDY    52  34  50 NW6       29.90F
FLINT          MOCLDY    51  40  65 W3        29.92S
GROSSE ILE     CLEAR     54  34  47 N3        29.88F
HILLSDALE      CLEAR     51  40  66 NW6       29.93S
HOWELL         CLEAR     48  40  72 CALM      29.92S

CITY           SKY/WX    TMP DP  RH WIND       PRES   REMARKS
JACKSON        PTCLDY    52  43  71 W3        29.93S
LAMBERTVILLE   CLEAR     48  43  80 CALM      29.90F
LANSING        MOCLDY    52  42  69 CALM      29.93S
LAPEER         FAIR      44  38  78 CALM      29.91S
MASON          MOCLDY    50  43  78 W6        29.93S
MONROE         CLEAR     51  38  63 CALM      29.89S
MT. CLEMENS    CLEAR     50  36  59 NW5       29.89S
PONTIAC        CLEAR     49  36  61 N5        29.90S
PORT HOPE        N/A     44  40  85 W5        29.91R
PORT HURON     CLEAR     46  39  76 N3        29.90F
TRI CITIES     CLEAR     49  42  77 N7        29.94S
MIDLAND        FAIR      43  42  93 CALM      29.93F
TROY           CLEAR     54  34  45 NW6       29.92S
SAGINAW HB     PTCLDY    46  43  87 NW6       29.93S
$$
MIZ043>046-050>051-056>058-064>065-071>073-077>080-060500-
SOUTHWEST LOWER MICHIGAN

CITY           SKY/WX    TMP DP  RH WIND       PRES   REMARKS
BATTLE CREEK   CLEAR     50  39  66 CALM      29.95S
BENTON HARBOR  CLEAR     40  38  93 W3        29.98S
BIG RAPIDS     CLEAR     46  36  66 CALM      29.94F
COLDWATER      PTCLDY    48  42  79 W3        29.94F
FREMONT        FAIR      45  36  72 N3        29.95F
HOLLAND        CLEAR    N/A N/A N/A W5        29.96F
GRAND RAPIDS   CLEAR     53  41  63 NW7       29.94F
IONIA          FAIR      53  40  60 NW6       29.93S
KALAMAZOO      CLEAR     48  35  60 NW5       29.95F
LUDINGTON      CLEAR     37  36  94 CALM      29.97S
MARSHALL       CLEAR     50  40  68 W3        29.93S
MOUNT PLEASANT CLEAR     47  43  87 CALM      29.94S
MUSKEGON       CLEAR     46  35  65 CALM      29.96F
SOUTH HAVEN    CLEAR     39  38  97 CALM      29.97S
$$
MIZ016>042-060500-
NORTHERN LOWER MICHIGAN

CITY           SKY/WX    TMP DP  RH WIND       PRES   REMARKS
ALPENA         CLEAR     48  39  71 W5        29.93F
BEAVER ISLAND  CLEAR     40  34  77 CALM      29.94S
BELLAIRE       CLEAR     38  36  92 CALM      29.95F
CADILLAC       CLEAR     39  37  91 CALM      29.94F
CHARLEVOIX     CLEAR     39  36  91 CALM      29.97F
FRANKFORT      CLEAR     38  34  87 CALM      29.95F
GAYLORD        CLEAR     44  38  79 CALM      29.94S
GRAYLING       CLEAR     40  38  93 CALM      29.95F
HARBOR SPRINGS CLEAR     38  35  86 CALM      29.94F
HOUGHTON LAKE  CLEAR     42  39  89 CALM      29.95S
MANISTEE       CLEAR     37  32  81 CALM      29.97S
OSCODA         CLEAR     45  37  74 W5        29.92S
PELLSTON       CLEAR     38  34  85 CALM      29.94F
ROGERS CITY    CLEAR     46  37  73 W5        29.93F
TRAVERSE CITY  CLEAR     40  36  86 CALM      29.94S
$$
MIZ007>008-015-060500-
EASTERN UPPER MICHIGAN

CITY           SKY/WX    TMP DP  RH WIND       PRES   REMARKS
KINROSS          N/A     41  36  81 W5        29.92S
MACKINAC ISLAN CLEAR     40  35  84 SW7       29.93F
NEWBERRY       PTCLDY    43  39  84 S6        29.91S
S. S. MARIE    PTCLDY    40  34  79 CALM      29.91S
MUNISING         N/A     54  36  50 S13       29.87F
$$
MIZ004>006-011>014-085-060500-
CENTRAL UPPER MICHIGAN

CITY           SKY/WX    TMP DP  RH WIND       PRES   REMARKS
MANISTIQUE     CLOUDY    44  37  77 SW3       29.91F
ESCANABA       CLOUDY    48  39  71 SW6       29.90F
MENOMINEE      CLEAR     48  39  71 CALM      29.92F
SAWYER-GWINN   CLOUDY    50  38  62 S7        29.87S
$$
MIZ001>003-009>011-084-060500-
WESTERN UPPER MICHIGAN

CITY           SKY/WX    TMP DP  RH WIND       PRES   REMARKS
IRON MOUNTAIN  PTCLDY    53  38  56 SE3       29.89F
HOUGHTON       CLEAR     48  32  53 W7        29.81F
COPPER HARBOR    N/A     49  25  39 SW15G23   29.80F
IRONWOOD       CLEAR     63  37  39 S13G21    29.82F
$$

ABBREVIATIONS USED IN REMARKS
   TC - TEMPERATURE IN CELSIUS
  WCI - WIND CHILL INDEX
   HX - HEAT INDEX
  VSB - VISIBILITY





USA.gov is the U.S. government's official web portal to all federal, state and local government web resources and services.